Flag for Ukraine Weather past 2 weeks in Luhansk, Ukraine

Now
82 °F

Scattered clouds.


Feels Like: 84 °F
Forecast: 64 / 89 °F
Wind: 3 mph from South

Location: Rostov-Na-Donu

Current Time: Jul 6, 2015 at 4:54:35 PM

Latest Report: Jul 6, 2015 at 4:30 PM


Visibility: N/A

Pressure: 29.86 "Hg

Humidity: 55%

Dew point: 64 °F

Location of LuhanskLocation

Historic Weather in Luhansk — Graph

°F

Luhansk temperature yesterday

Maximum temperature yesterday: 88 °F (at 1:30 PM)
Minimum temperature yesterday: 63 °F (at 3:30 AM)
Average temperature yesterday: 77 °F

Past Weeks' High & Low Weather Summary

 TemperatureHumidityPressure
High88 °F (Jul 5, 1:30 PM)100% (Jun 22, 3:30 AM)30.21 "Hg (Jun 22, 3:30 AM)
Low63 °F (Jun 22, 3:30 AM)29% (Jul 5, 1:30 PM)29.62 "Hg (Jun 26, 6:30 AM)
Average73 °F69%29.88 "Hg
* Reported Jun 21 4:00 PM — Jul 6 4:00 PM, Luhansk, Weather by CustomWeather, © 2015

Note: Actual official high and low records may vary slightly from our data, if they occured in-between our weather recording intervals... More about our weather records

Advertising

Luhansk weather history for previous 24 hours

 ConditionsComfort  
Time TempWeatherWind HumidityBarometerVisibility
4:00 PM
Mon, Jul 6
81 °FScattered clouds.1 mph62%29.86 "HgN/A
3:30 PM81 °FBroken clouds.1 mph66%29.86 "HgN/A
3:00 PM79 °FBroken clouds.6 mph65%29.89 "HgN/A
2:30 PM75 °FBroken clouds.3 mph69%29.89 "HgN/A
2:00 PM72 °FThunderstorms. Broken clouds.3 mph83%29.89 "HgN/A
1:30 PM70 °FThunderstorms. More clouds than sun.8 mph88%29.89 "HgN/A
1:00 PM70 °FThunderstorms. More clouds than sun.10 mph88%29.89 "Hg2 mi
12:30 PM77 °FThunderstorms. Broken clouds.8 mph61%29.89 "HgN/A
12:00 PM81 °FThundershowers. Partly sunny.3 mph54%29.89 "HgN/A
11:30 AM81 °FPartly sunny.6 mph51%29.89 "HgN/A
11:00 AM81 °FPartly sunny.6 mph54%29.89 "HgN/A
10:30 AM81 °FPartly sunny.6 mph54%29.89 "HgN/A
10:00 AM79 °FPartly sunny.6 mph58%29.89 "HgN/A
9:30 AM77 °FPartly sunny.6 mph61%29.89 "HgN/A
9:00 AM77 °FPartly sunny.6 mph61%29.89 "HgN/A
8:30 AM75 °FPartly sunny.3 mph65%29.89 "HgN/A
8:00 AM75 °FPartly sunny.6 mph61%29.89 "HgN/A
7:30 AM75 °FPartly sunny.6 mph61%29.92 "HgN/A
7:00 AM72 °FPartly sunny.3 mph69%29.89 "HgN/A
6:30 AM72 °FPartly sunny.8 mph69%29.89 "HgN/A
6:00 AM72 °FPartly sunny.3 mph69%29.92 "HgN/A
5:30 AM70 °FPassing clouds.3 mph69%29.89 "HgN/A
5:00 AM70 °FPassing clouds.6 mph69%29.89 "HgN/A
4:30 AM68 °FPassing clouds.6 mph73%29.89 "HgN/A
4:00 AM70 °FPassing clouds.1 mph64%29.89 "HgN/A
3:30 AM72 °FPartly cloudy.6 mph61%29.89 "HgN/A
3:00 AM73 °FPartly cloudy.6 mph53%29.89 "HgN/A
2:30 AM73 °FPartly cloudy.6 mph53%29.89 "HgN/A
2:00 AM75 °FPartly cloudy.10 mph50%29.89 "HgN/A
1:30 AM77 °FPartly cloudy.8 mph44%29.89 "HgN/A
1:00 AM75 °FThunderstorms. Partly cloudy.8 mph50%29.89 "HgN/A
12:30 AM75 °FSprinkles. Partly cloudy.8 mph50%29.89 "HgN/A
12:00 AM75 °FPassing clouds.8 mph50%29.89 "HgN/A
11:30 PM
Sun, Jul 5
77 °FPassing clouds.6 mph47%29.92 "HgN/A
11:00 PM77 °FPassing clouds.6 mph44%29.92 "HgN/A
10:30 PM79 °FPassing clouds.6 mph42%29.89 "HgN/A
10:00 PM79 °FPassing clouds.8 mph42%29.89 "HgN/A
9:30 PM81 °FPassing clouds.8 mph39%29.89 "HgN/A
9:00 PM81 °FPartly sunny.10 mph39%29.89 "HgN/A
8:30 PM81 °FPartly sunny.10 mph42%29.89 "HgN/A
8:00 PM81 °FPartly sunny.8 mph39%29.89 "HgN/A
7:30 PM81 °FSunny.8 mph42%29.89 "Hg10 mi
7:00 PM84 °FSunny.8 mph37%29.92 "Hg10 mi
6:30 PM84 °FSunny.6 mph43%29.92 "Hg10 mi
6:00 PM84 °FSunny.8 mph40%29.92 "Hg10 mi
5:30 PM88 °FSunny.6 mph35%29.92 "Hg10 mi
5:00 PM86 °FSunny.6 mph33%29.92 "Hg10 mi
4:30 PM88 °FPartly sunny.8 mph31%29.92 "HgN/A
4:00 PM88 °FPartly sunny.6 mph38%29.95 "HgN/A
Weather by CustomWeather, © 2015

See weather overviewHow to use our weather pages